******************************************************************************* JPL/HORIZONS Lemmon (C/2018 C2) 2025-Dec-12 21:15:41 Rec #:90004475 (+COV) Soln.date: 2021-Apr-15_23:33:41 # obs: 1672 (272 days) IAU76/J2000 helio. ecliptic osc. elements (au, days, deg., period=Julian yrs): EPOCH= 2458258.5 ! 2018-May-20.0000000 (TDB) RMSW= n.a. EC= 1.00180655729515 QR= 1.95651250015357 TP= 2458271.7239238825 OM= 91.13971556097802 W= 134.1384875107038 IN= 34.45339329783236 A= -1083.00606097916 MA= -.000365694209742405ADIST= 9.999999E99 PER= 9.999999E99 N= 2.7654E-5 ANGMOM= .034043469 DAN= 12.95386 DDN= 2.30704 L= 230.7830141 B= 23.9541278 MOID= 1.06201994 TP= 2018-Jun-02.2239238825 Comet physical (GM= km^3/s^2; RAD= km): GM= n.a. RAD= n.a. M1= 7.6 M2= 14.8 k1= 26.5 k2= 5. PHCOF= .030 COMET comments 1: soln ref.= JPL#12, data arc: 2018-01-28 to 2018-10-27 2: k1=26.5, k2=5., phase coef.=0.03; ******************************************************************************* ******************************************************************************* Ephemeris / WWW_USER Fri Dec 12 21:15:41 2025 Pasadena, USA / Horizons ******************************************************************************* Target body name: Lemmon (C/2018 C2) {source: JPL#12} Center body name: Solar System Barycenter (0) {source: DE441} Center-site name: BODY CENTER ******************************************************************************* Start time : A.D. 2200-Jan-01 00:00:00.0000 TDB Stop time : A.D. 2300-Jan-01 00:00:00.0000 TDB Step-size : 200 calendar years ******************************************************************************* Center geodetic : 0.0, 0.0, 0.0 {E-lon(deg),Lat(deg),Alt(km)} Center cylindric: 0.0, 0.0, 0.0 {E-lon(deg),Dxy(km),Dz(km)} Center radii : (undefined) Keplerian GM : 2.9630927493968080E-04 au^3/d^2 Small perturbers: Yes {source: SB441-N16} Output units : AU-D, deg, Julian Day Number (Tp) Calendar mode : Mixed Julian/Gregorian Output type : GEOMETRIC osculating elements Output format : 10 Reference frame : Ecliptic of J2000.0 ******************************************************************************* Initial IAU76/J2000 heliocentric ecliptic osculating elements (au, days, deg.): EPOCH= 2458258.5 ! 2018-May-20.0000000 (TDB) RMSW= n.a. EC= 1.00180655729515 QR= 1.95651250015357 TP= 2458271.7239238825 OM= 91.13971556097802 W= 134.1384875107038 IN= 34.45339329783236 Equivalent ICRF heliocentric cartesian coordinates (au, au/d): X=-1.261816103580406E+00 Y=-1.468587810443554E+00 Z= 3.247955976013766E-01 VX= 9.615069311906525E-03 VY=-9.341434087552497E-03 VZ=-1.104580730042142E-02 Comet physical (GM= km^3/s^2; RAD= km): GM= n.a. RAD= n.a. M1= 7.6 M2= 14.8 k1= 26.5 k2= 5. PHCOF= .030 ******************************************************************************* JDTDB EC QR IN OM W Tp N MA TA A AD PR ******************************************************************************* $$SOE 2524593.500000000 = A.D. 2200-Jan-01 00:00:00.0000 TDB EC= 9.992489444692518E-01 QR= 1.942458524464188E+00 IN= 3.448916629416945E+01 OM= 9.109692074649638E+01 W = 1.338841460510162E+02 Tp= 2458272.826747710817 N = 7.498522457269843E-06 MA= 4.973070577635368E-01 TA= 1.681849864500391E+02 A = 2.586304800298118E+03 AD= 5.170667142071772E+03 PR= 4.800945813677983E+07 $$EOE ******************************************************************************* TIME Barycentric Dynamical Time ("TDB" or T_eph) output was requested. This continuous coordinate time is equivalent to the relativistic proper time of a clock at rest in a reference frame co-moving with the solar system barycenter but outside the system's gravity well. It is the independent variable in the solar system relativistic equations of motion. TDB runs at a uniform rate of one SI second per second and is independent of irregularities in Earth's rotation. CALENDAR SYSTEM Mixed calendar mode was active such that calendar dates after AD 1582-Oct-15 (if any) are in the modern Gregorian system. Dates prior to 1582-Oct-5 (if any) are in the Julian calendar system, which is automatically extended for dates prior to its adoption on 45-Jan-1 BC. The Julian calendar is useful for matching historical dates. The Gregorian calendar more accurately corresponds to the Earth's orbital motion and seasons. A "Gregorian-only" calendar mode is available if such physical events are the primary interest. REFERENCE FRAME AND COORDINATES Ecliptic at the standard reference epoch Reference epoch: J2000.0 X-Y plane: adopted Earth orbital plane at the reference epoch Note: IAU76 obliquity of 84381.448 arcseconds wrt ICRF X-Y plane X-axis : ICRF Z-axis : perpendicular to the X-Y plane in the directional (+ or -) sense of Earth's north pole at the reference epoch. Symbol meaning [1 au= 149597870.700 km, 1 day= 86400.0 s]: JDTDB Julian Day Number, Barycentric Dynamical Time EC Eccentricity, e QR Periapsis distance, q (au) IN Inclination w.r.t X-Y plane, i (degrees) OM Longitude of Ascending Node, OMEGA, (degrees) W Argument of Perifocus, w (degrees) Tp Time of periapsis (Julian Day Number) N Mean motion, n (degrees/day) MA Mean anomaly, M (degrees) TA True anomaly, nu (degrees) A Semi-major axis, a (au) AD Apoapsis distance (au) PR Sidereal orbit period (day) ABERRATIONS AND CORRECTIONS Geometric osculating elements have NO corrections or aberrations applied. Computations by ... Solar System Dynamics Group, Horizons On-Line Ephemeris System 4800 Oak Grove Drive, Jet Propulsion Laboratory Pasadena, CA 91109 USA General site: https://ssd.jpl.nasa.gov/ Mailing list: https://ssd.jpl.nasa.gov/email_list.html System news : https://ssd.jpl.nasa.gov/horizons/news.html User Guide : https://ssd.jpl.nasa.gov/horizons/manual.html Connect : browser https://ssd.jpl.nasa.gov/horizons/app.html#/x API https://ssd-api.jpl.nasa.gov/doc/horizons.html command-line telnet ssd.jpl.nasa.gov 6775 e-mail/batch https://ssd.jpl.nasa.gov/ftp/ssd/horizons_batch.txt scripts https://ssd.jpl.nasa.gov/ftp/ssd/SCRIPTS Author : Jon.D.Giorgini@jpl.nasa.gov ******************************************************************************* !$$SOF CENTER = '@0' COMMAND = '2018 C2' MAKE_EPHEM = 'YES' OUT_UNITS = 'AU-D' START_TIME = '2200-01-01' STEP_SIZE = '200 years' STOP_TIME = '2300-01-01' TABLE_TYPE = 'ELEMENTS'